Powrót do katalogu

ATLAS 5 CENTAUR DEB

AktywnyHEO
NORAD 43959·DEBRIS·🇺🇸 United States

Wystrzelony Sep 17, 2014 z Cape Canaveral Space Force Station

Loading…

Następne Przeloty (najbliższe 24 godziny)

TLE

ŚwieżeSource: Space-Track

Epoka: Sep 6, 2026, 01:20 UTC

1 43959U 14055N   26249.05559419 -.00000152  00000-0  00000+0 0  9994
2 43959  20.1916 129.7165 4999455 187.1790 161.4551  1.81440206 53131

Śledź ATLAS 5 CENTAUR DEB w czasie rzeczywistym z AllMySat

Download on the App Store